Location: Trebic
(49.2170°N, 15.8830°E)
Time: 00:51:48
(UTC+01:00)

ISS - Visible Passes

Search period start: 11 December 2023 00:00
Search period end: 21 December 2023 00:00
Orbit: 415 x 417 km, 51.6° (Epoch: 10 December)

Date Brightness Start Highest point End Pass type
(mag) Time Alt. Az. Time Alt. Az. Time Alt. Az.
15 Dec -0.7 06:58:30 10° S 07:00:53 18° SE 07:03:15 10° E visible
16 Dec -0.4 06:11:02 10° SSE 06:12:19 12° SE 06:13:37 10° ESE visible
17 Dec -2.1 06:56:38 10° SW 06:59:44 37° SSE 07:02:52 10° E visible
18 Dec -1.5 06:08:15 10° SSW 06:11:03 25° SE 06:13:52 10° E visible
19 Dec -1.0 05:20:16 10° S 05:22:24 17° SE 05:24:38 10° E visible
19 Dec -3.5 06:55:21 10° WSW 06:58:42 74° SSE 07:02:02 10° ENE visible
20 Dec -0.4 04:34:16 10° SE 04:34:16 10° SE 04:34:38 10° ESE visible
20 Dec -3.0 06:07:11 14° SW 06:09:52 51° SSE 06:13:09 10° ENE visible
